DAL2194 KLGA-KMYR

Flight info

Callsign DAL2194
Flight time 1h 37m
Altitude 36000
Route WHITE Q409 CRPLR PAACK WYLMS
Aircraft B738/M-SDE2E3FGHIRWXY/LB1

Departure

Time 2026-04-20 17:31
Airport LaGuardia Airport (KLGA)

Arrival

Time 2026-04-20 19:09
Airport Myrtle Beach International Airport (KMYR)
Time Latitude Longitude Altitude Speed Heading
2026-04-20 17:07 40.77171 -73.86338 8 ft 0 kts 133°
2026-04-20 17:14 40.77179 -73.86350 8 ft 2 kts 121°
2026-04-20 17:15 40.77186 -73.86368 9 ft 2 kts 111°
2026-04-20 17:15 40.77190 -73.86387 9 ft 2 kts 100°
2026-04-20 17:15 40.77192 -73.86406 9 ft 2 kts 89°
2026-04-20 17:15 40.77191 -73.86422 10 ft 0 kts 90°
2026-04-20 17:16 40.77191 -73.86423 10 ft 0 kts 91°
2026-04-20 17:22 40.77195 -73.86401 9 ft 5 kts 56°
2026-04-20 17:22 40.77234 -73.86356 8 ft 7 kts 40°
2026-04-20 17:23 40.77269 -73.86320 8 ft 4 kts 25°
2026-04-20 17:23 40.77313 -73.86336 8 ft 11 kts 316°
2026-04-20 17:23 40.77356 -73.86424 8 ft 10 kts 302°
2026-04-20 17:23 40.77394 -73.86502 8 ft 9 kts 302°
2026-04-20 17:24 40.77430 -73.86577 8 ft 13 kts 302°
2026-04-20 17:24 40.77493 -73.86706 9 ft 16 kts 302°
2026-04-20 17:24 40.77558 -73.86820 10 ft 14 kts 303°
2026-04-20 17:24 40.77607 -73.86917 11 ft 11 kts 303°
2026-04-20 17:25 40.77655 -73.87016 12 ft 16 kts 302°
2026-04-20 17:25 40.77731 -73.87175 12 ft 24 kts 302°
2026-04-20 17:25 40.77768 -73.87374 12 ft 22 kts 262°
2026-04-20 17:25 40.77700 -73.87534 12 ft 18 kts 212°
2026-04-20 17:26 40.77629 -73.87592 14 ft 7 kts 216°
2026-04-20 17:26 40.77608 -73.87652 15 ft 11 kts 287°
2026-04-20 17:26 40.77600 -73.87704 15 ft 4 kts 218°
2026-04-20 17:26 40.77540 -73.87748 15 ft 14 kts 211°
2026-04-20 17:27 40.77457 -73.87814 15 ft 12 kts 211°
2026-04-20 17:27 40.77386 -73.87869 15 ft 10 kts 210°
2026-04-20 17:27 40.77326 -73.87915 15 ft 9 kts 212°
2026-04-20 17:27 40.77276 -73.87956 15 ft 9 kts 212°
2026-04-20 17:28 40.77187 -73.88030 15 ft 19 kts 213°
2026-04-20 17:28 40.77076 -73.88132 15 ft 18 kts 215°
2026-04-20 17:28 40.76978 -73.88229 15 ft 17 kts 218°
2026-04-20 17:28 40.76918 -73.88346 17 ft 13 kts 259°
2026-04-20 17:29 40.76960 -73.88375 16 ft 5 kts 32°
2026-04-20 17:29 40.76963 -73.88373 16 ft 1 kts 31°
2026-04-20 17:29 40.76969 -73.88367 16 ft 0 kts 31°
2026-04-20 17:29 40.76971 -73.88366 16 ft 1 kts 31°
2026-04-20 17:30 40.76985 -73.88354 16 ft 3 kts 31°
2026-04-20 17:30 40.77037 -73.88314 15 ft 23 kts 30°
2026-04-20 17:30 40.77360 -73.88049 15 ft 92 kts 30°
2026-04-20 17:30 40.78118 -73.87444 11 ft 158 kts 27°
2026-04-20 17:31 40.79172 -73.86649 360 ft 187 kts 29°
2026-04-20 17:31 40.80255 -73.85640 1228 ft 193 kts 30°
2026-04-20 17:31 40.81501 -73.85079 1900 ft 195 kts 357°
2026-04-20 17:31 40.82848 -73.85393 2450 ft 202 kts 342°
2026-04-20 17:32 40.84269 -73.85917 2838 ft 224 kts 342°
2026-04-20 17:32 40.85826 -73.86485 3412 ft 240 kts 342°
2026-04-20 17:32 40.87395 -73.87266 4123 ft 246 kts 325°
2026-04-20 17:32 40.88543 -73.88884 4969 ft 247 kts 296°
2026-04-20 17:33 40.88935 -73.91065 5756 ft 253 kts 269°
2026-04-20 17:33 40.88438 -73.93293 6582 ft 260 kts 240°
2026-04-20 17:33 40.87156 -73.94972 7478 ft 265 kts 215°
2026-04-20 17:33 40.85555 -73.96064 8378 ft 265 kts 208°
2026-04-20 17:34 40.83822 -73.96974 9290 ft 266 kts 201°
2026-04-20 17:34 40.82075 -73.97559 10276 ft 263 kts 197°
2026-04-20 17:34 40.80264 -73.98071 11024 ft 266 kts 197°
2026-04-20 17:34 40.78467 -73.98616 11783 ft 268 kts 198°
2026-04-20 17:35 40.76666 -73.99214 12549 ft 269 kts 199°
2026-04-20 17:35 40.74852 -73.99840 13247 ft 273 kts 199°
2026-04-20 17:35 40.73046 -74.00464 13992 ft 274 kts 199°
2026-04-20 17:35 40.71209 -74.01093 14668 ft 277 kts 199°
2026-04-20 17:36 40.69360 -74.01725 15386 ft 278 kts 200°
2026-04-20 17:36 40.67479 -74.02371 15997 ft 283 kts 200°
2026-04-20 17:36 40.65553 -74.03030 16652 ft 285 kts 200°
2026-04-20 17:36 40.63626 -74.03690 17237 ft 290 kts 200°
2026-04-20 17:37 40.61676 -74.04359 17870 ft 292 kts 200°
2026-04-20 17:37 40.59695 -74.05042 18411 ft 297 kts 200°
2026-04-20 17:37 40.57708 -74.05722 19038 ft 299 kts 200°
2026-04-20 17:37 40.55687 -74.06416 19646 ft 300 kts 201°
2026-04-20 17:38 40.53684 -74.07099 20253 ft 301 kts 201°
2026-04-20 17:38 40.51644 -74.07798 20830 ft 303 kts 201°
2026-04-20 17:38 40.49617 -74.08488 21457 ft 302 kts 201°
2026-04-20 17:38 40.47547 -74.09198 21918 ft 306 kts 201°
2026-04-20 17:39 40.45503 -74.09896 22506 ft 306 kts 202°
2026-04-20 17:39 40.43444 -74.10601 22975 ft 309 kts 202°
2026-04-20 17:39 40.41350 -74.11318 23499 ft 309 kts 202°
2026-04-20 17:39 40.39296 -74.12014 24061 ft 308 kts 202°
2026-04-20 17:40 40.37175 -74.12736 24451 ft 312 kts 202°
2026-04-20 17:40 40.35078 -74.13453 24874 ft 313 kts 203°
2026-04-20 17:40 40.32971 -74.14175 25328 ft 314 kts 202°
2026-04-20 17:40 40.30867 -74.14893 25668 ft 318 kts 203°
2026-04-20 17:41 40.28692 -74.15638 26033 ft 321 kts 202°
2026-04-20 17:41 40.26534 -74.16364 26532 ft 318 kts 203°
2026-04-20 17:41 40.24388 -74.17088 26884 ft 319 kts 203°
2026-04-20 17:41 40.22236 -74.17818 27191 ft 322 kts 203°
2026-04-20 17:42 40.20058 -74.18565 27453 ft 326 kts 203°
2026-04-20 17:42 40.17884 -74.19297 28012 ft 320 kts 204°
2026-04-20 17:42 40.15711 -74.20032 28144 ft 328 kts 204°
2026-04-20 17:42 40.13483 -74.20792 28471 ft 328 kts 203°
2026-04-20 17:43 40.11277 -74.21539 28745 ft 330 kts 204°
2026-04-20 17:43 40.09053 -74.22292 29016 ft 332 kts 203°
2026-04-20 17:43 40.06833 -74.23034 29411 ft 328 kts 203°
2026-04-20 17:43 40.04623 -74.23776 29663 ft 330 kts 204°
2026-04-20 17:44 40.02407 -74.24614 29762 ft 333 kts 208°
2026-04-20 17:44 40.00289 -74.25754 30100 ft 324 kts 215°
2026-04-20 17:44 39.98362 -74.27230 30280 ft 323 kts 221°
2026-04-20 17:44 39.96534 -74.28928 30470 ft 323 kts 223°
2026-04-20 17:45 39.94719 -74.30706 30607 ft 326 kts 223°
2026-04-20 17:45 39.92908 -74.32473 30758 ft 329 kts 223°
2026-04-20 17:45 39.91073 -74.34243 30908 ft 331 kts 223°
2026-04-20 17:45 39.89219 -74.36022 31072 ft 334 kts 223°
2026-04-20 17:46 39.87323 -74.37833 31209 ft 338 kts 223°
2026-04-20 17:46 39.85408 -74.39655 31389 ft 340 kts 223°
2026-04-20 17:46 39.83522 -74.41460 31589 ft 341 kts 223°
2026-04-20 17:47 39.79904 -74.45467 31874 ft 343 kts 229°
2026-04-20 17:47 39.78210 -74.47685 32000 ft 346 kts 231°
2026-04-20 17:47 39.76535 -74.49944 32158 ft 347 kts 231°
2026-04-20 17:47 39.74862 -74.52204 32327 ft 349 kts 231°
2026-04-20 17:48 39.73150 -74.54499 32409 ft 354 kts 230°
2026-04-20 17:48 39.71446 -74.56769 32593 ft 354 kts 230°
2026-04-20 17:48 39.69703 -74.59087 32685 ft 358 kts 230°
2026-04-20 17:48 39.67965 -74.61388 32836 ft 360 kts 230°
2026-04-20 17:49 39.66213 -74.63707 32930 ft 364 kts 230°
2026-04-20 17:49 39.64451 -74.66035 33145 ft 364 kts 229°
2026-04-20 17:49 39.62658 -74.68405 33327 ft 367 kts 229°
2026-04-20 17:49 39.60875 -74.70755 33590 ft 367 kts 229°
2026-04-20 17:50 39.59069 -74.73135 33709 ft 371 kts 229°
2026-04-20 17:50 39.57276 -74.75496 34033 ft 369 kts 229°
2026-04-20 17:50 39.55447 -74.77903 34100 ft 374 kts 229°
2026-04-20 17:50 39.53623 -74.80302 34337 ft 374 kts 229°
2026-04-20 17:51 39.51803 -74.82690 34638 ft 373 kts 229°
2026-04-20 17:51 39.49995 -74.85062 34837 ft 373 kts 229°
2026-04-20 17:51 39.48187 -74.87432 35059 ft 373 kts 229°
2026-04-20 17:51 39.46362 -74.89819 35394 ft 369 kts 229°
2026-04-20 17:52 39.44567 -74.92166 35618 ft 369 kts 229°
2026-04-20 17:52 39.42748 -74.94542 35774 ft 370 kts 229°
2026-04-20 17:52 39.40940 -74.96903 35955 ft 371 kts 229°
2026-04-20 17:52 39.39126 -74.99269 36116 ft 372 kts 229°
2026-04-20 17:53 39.37303 -75.01645 36254 ft 372 kts 229°
2026-04-20 17:53 39.35501 -75.03991 36363 ft 372 kts 229°
2026-04-20 17:53 39.33677 -75.06370 36546 ft 370 kts 229°
2026-04-20 17:53 39.31888 -75.08699 36765 ft 368 kts 229°
2026-04-20 17:54 39.30088 -75.11037 36865 ft 368 kts 228°
2026-04-20 17:54 39.26344 -75.15572 36846 ft 365 kts 226°
2026-04-20 17:54 39.24453 -75.17728 36353 ft 365 kts 226°
2026-04-20 17:55 39.22557 -75.19898 36230 ft 361 kts 226°
2026-04-20 17:55 39.18828 -75.24239 36196 ft 367 kts 227°
2026-04-20 17:56 39.15016 -75.28715 36194 ft 374 kts 226°
2026-04-20 17:56 39.11130 -75.33232 36203 ft 381 kts 226°
2026-04-20 17:57 39.07166 -75.37830 36200 ft 385 kts 226°
2026-04-20 17:57 39.03022 -75.42166 36192 ft 388 kts 217°
2026-04-20 17:57 39.00553 -75.43733 36204 ft 397 kts 205°
2026-04-20 17:58 38.97855 -75.44647 36211 ft 406 kts 197°
2026-04-20 17:58 38.92218 -75.45603 36207 ft 410 kts 193°
2026-04-20 17:59 38.86553 -75.46311 36203 ft 408 kts 192°
2026-04-20 17:59 38.80900 -75.47028 36205 ft 408 kts 193°
2026-04-20 18:00 38.75253 -75.47769 36203 ft 407 kts 193°
2026-04-20 18:00 38.69630 -75.48529 36210 ft 408 kts 193°
2026-04-20 18:01 38.63940 -75.49308 36203 ft 406 kts 193°
2026-04-20 18:01 38.58357 -75.50066 36203 ft 404 kts 193°
2026-04-20 18:02 38.52766 -75.50825 36208 ft 407 kts 193°
2026-04-20 18:02 38.47112 -75.51585 36197 ft 405 kts 193°
2026-04-20 18:03 38.41529 -75.52341 36203 ft 405 kts 193°
2026-04-20 18:03 38.35954 -75.53268 36211 ft 398 kts 200°
2026-04-20 18:04 38.30971 -75.55840 36213 ft 383 kts 217°
2026-04-20 18:04 38.26530 -75.59590 36210 ft 382 kts 220°
2026-04-20 18:05 38.19999 -75.65422 36213 ft 384 kts 220°
2026-04-20 18:05 38.15638 -75.69250 36209 ft 381 kts 220°
2026-04-20 18:06 38.11252 -75.73065 36204 ft 382 kts 220°
2026-04-20 18:06 38.06848 -75.76888 36213 ft 385 kts 219°
2026-04-20 18:07 38.02420 -75.80720 36207 ft 383 kts 219°
2026-04-20 18:07 37.98007 -75.84528 36191 ft 384 kts 220°
2026-04-20 18:08 37.93570 -75.88364 36201 ft 388 kts 220°
2026-04-20 18:08 37.89124 -75.92196 36195 ft 386 kts 220°
2026-04-20 18:09 37.84693 -75.96004 36202 ft 386 kts 220°
2026-04-20 18:09 37.80271 -75.99802 36197 ft 384 kts 220°
2026-04-20 18:10 37.75850 -76.03596 36209 ft 384 kts 220°
2026-04-20 18:10 37.71424 -76.07391 36190 ft 385 kts 220°
2026-04-20 18:11 37.67010 -76.11159 36192 ft 385 kts 220°
2026-04-20 18:11 37.62587 -76.14930 36184 ft 383 kts 220°
2026-04-20 18:12 37.58049 -76.18520 36175 ft 388 kts 216°
2026-04-20 18:12 37.53257 -76.21674 36173 ft 389 kts 214°
2026-04-20 18:13 37.48445 -76.24779 36175 ft 389 kts 214°
2026-04-20 18:13 37.43653 -76.27920 36179 ft 388 kts 214°
2026-04-20 18:14 37.38913 -76.31048 36184 ft 387 kts 215°
2026-04-20 18:14 37.34136 -76.34213 36179 ft 389 kts 215°
2026-04-20 18:15 37.29369 -76.37363 36180 ft 387 kts 215°
2026-04-20 18:15 37.24572 -76.40533 36186 ft 388 kts 215°
2026-04-20 18:16 37.19824 -76.43673 36193 ft 388 kts 215°
2026-04-20 18:16 37.15062 -76.46804 36181 ft 387 kts 215°
2026-04-20 18:17 37.10278 -76.49947 36180 ft 387 kts 215°
2026-04-20 18:17 37.05529 -76.53066 36181 ft 387 kts 215°
2026-04-20 18:18 37.00728 -76.56215 36185 ft 388 kts 215°
2026-04-20 18:18 36.95961 -76.59338 36175 ft 386 kts 215°
2026-04-20 18:19 36.91204 -76.62452 36177 ft 389 kts 215°
2026-04-20 18:19 36.86431 -76.65569 36178 ft 388 kts 214°
2026-04-20 18:20 36.81647 -76.68689 36180 ft 388 kts 214°
2026-04-20 18:20 36.76852 -76.71812 36181 ft 387 kts 215°
2026-04-20 18:21 36.72113 -76.74892 36178 ft 386 kts 215°
2026-04-20 18:21 36.67326 -76.78001 36182 ft 388 kts 215°
2026-04-20 18:22 36.62558 -76.81090 36179 ft 386 kts 215°
2026-04-20 18:22 36.57764 -76.84197 36184 ft 387 kts 215°
2026-04-20 18:23 36.53029 -76.87254 36170 ft 384 kts 216°
2026-04-20 18:23 36.48267 -76.90326 36172 ft 386 kts 216°
2026-04-20 18:24 36.43500 -76.93407 36171 ft 386 kts 215°
2026-04-20 18:24 36.38725 -76.96482 36177 ft 387 kts 216°
2026-04-20 18:25 36.33944 -76.99548 36172 ft 385 kts 215°
2026-04-20 18:25 36.29189 -77.02598 36188 ft 387 kts 215°
2026-04-20 18:26 36.24421 -77.05651 36188 ft 387 kts 216°
2026-04-20 18:26 36.19665 -77.08700 36197 ft 384 kts 216°
2026-04-20 18:27 36.14902 -77.11747 36201 ft 386 kts 216°
2026-04-20 18:27 36.10150 -77.14784 36192 ft 384 kts 216°
2026-04-20 18:28 36.05385 -77.17822 36196 ft 385 kts 216°
2026-04-20 18:28 36.00635 -77.20846 36205 ft 385 kts 216°
2026-04-20 18:29 35.95876 -77.23877 36202 ft 386 kts 216°
2026-04-20 18:29 35.91103 -77.26874 36213 ft 385 kts 215°
2026-04-20 18:30 35.86247 -77.29657 36214 ft 387 kts 213°
2026-04-20 18:30 35.81340 -77.32397 36217 ft 390 kts 214°
2026-04-20 18:31 35.76431 -77.35155 36209 ft 385 kts 213°
2026-04-20 18:31 35.71555 -77.37910 36211 ft 384 kts 214°
2026-04-20 18:32 35.66686 -77.40667 36220 ft 386 kts 214°
2026-04-20 18:32 35.61836 -77.43404 36221 ft 382 kts 214°
2026-04-20 18:33 35.57006 -77.46130 36222 ft 385 kts 214°
2026-04-20 18:33 35.52876 -77.48460 36224 ft 385 kts 214°
2026-04-20 18:37 35.51944 -77.48984 36219 ft 384 kts 214°
2026-04-20 18:38 35.47085 -77.51722 36228 ft 385 kts 214°
2026-04-20 18:38 35.42249 -77.54444 36222 ft 382 kts 214°
2026-04-20 18:39 35.37407 -77.57164 36231 ft 385 kts 214°
2026-04-20 18:39 35.32549 -77.59887 36228 ft 384 kts 214°
2026-04-20 18:40 35.27707 -77.62595 36228 ft 382 kts 214°
2026-04-20 18:40 35.22897 -77.65292 36234 ft 382 kts 213°
2026-04-20 18:41 35.18056 -77.68000 36235 ft 383 kts 213°
2026-04-20 18:41 35.13236 -77.70684 36221 ft 381 kts 214°
2026-04-20 18:42 35.10823 -77.72026 35962 ft 377 kts 214°
2026-04-20 18:42 35.08428 -77.73358 35484 ft 378 kts 214°
2026-04-20 18:42 35.06065 -77.74666 34905 ft 380 kts 214°
2026-04-20 18:42 35.03637 -77.76019 34258 ft 384 kts 214°
2026-04-20 18:43 35.01184 -77.77389 33586 ft 388 kts 214°
2026-04-20 18:43 34.98748 -77.78754 33131 ft 388 kts 214°
2026-04-20 18:43 34.96295 -77.80122 32649 ft 389 kts 214°
2026-04-20 18:43 34.93847 -77.81486 32196 ft 391 kts 214°
2026-04-20 18:44 34.91369 -77.82875 31700 ft 394 kts 214°
2026-04-20 18:44 34.88889 -77.84257 31190 ft 397 kts 213°
2026-04-20 18:44 34.86367 -77.85654 30540 ft 399 kts 213°
2026-04-20 18:44 34.83838 -77.87048 29911 ft 398 kts 213°
2026-04-20 18:45 34.81337 -77.88418 29371 ft 395 kts 213°
2026-04-20 18:45 34.78839 -77.89786 28830 ft 391 kts 213°
2026-04-20 18:45 34.76371 -77.91141 28328 ft 387 kts 213°
2026-04-20 18:45 34.73917 -77.92490 27813 ft 384 kts 213°
2026-04-20 18:46 34.71508 -77.93816 27325 ft 380 kts 213°
2026-04-20 18:46 34.69117 -77.95136 26806 ft 378 kts 213°
2026-04-20 18:46 34.66730 -77.96452 26299 ft 374 kts 213°
2026-04-20 18:46 34.64375 -77.97749 25815 ft 371 kts 213°
2026-04-20 18:47 34.62038 -77.99037 25318 ft 368 kts 213°
2026-04-20 18:47 34.59707 -78.00323 24804 ft 365 kts 213°
2026-04-20 18:47 34.57396 -78.01591 24323 ft 362 kts 213°
2026-04-20 18:47 34.55114 -78.02837 23842 ft 359 kts 213°
2026-04-20 18:48 34.52856 -78.04073 23361 ft 355 kts 213°
2026-04-20 18:48 34.50638 -78.05291 22891 ft 352 kts 213°
2026-04-20 18:48 34.48419 -78.06511 22424 ft 349 kts 213°
2026-04-20 18:48 34.46197 -78.07729 21942 ft 346 kts 212°
2026-04-20 18:49 34.44037 -78.08913 21493 ft 343 kts 213°
2026-04-20 18:49 34.41855 -78.10107 21040 ft 340 kts 213°
2026-04-20 18:49 34.39725 -78.11272 20592 ft 337 kts 213°
2026-04-20 18:49 34.37605 -78.12431 20154 ft 334 kts 213°
2026-04-20 18:50 34.35486 -78.13591 19702 ft 332 kts 213°
2026-04-20 18:50 34.33393 -78.14736 19255 ft 329 kts 213°
2026-04-20 18:50 34.31311 -78.15872 18848 ft 326 kts 213°
2026-04-20 18:50 34.29258 -78.16996 18416 ft 324 kts 213°
2026-04-20 18:51 34.27230 -78.18107 17996 ft 321 kts 213°
2026-04-20 18:51 34.25187 -78.19222 17569 ft 319 kts 213°
2026-04-20 18:51 34.23179 -78.20313 17143 ft 318 kts 213°
2026-04-20 18:51 34.21158 -78.21412 16716 ft 316 kts 213°
2026-04-20 18:52 34.19151 -78.22503 16293 ft 314 kts 213°
2026-04-20 18:52 34.17193 -78.23567 16057 ft 306 kts 213°
2026-04-20 18:52 34.15264 -78.24610 15748 ft 302 kts 213°
2026-04-20 18:52 34.13338 -78.25661 15298 ft 303 kts 213°
2026-04-20 18:53 34.11472 -78.26784 14886 ft 296 kts 220°
2026-04-20 18:53 34.09936 -78.28298 14520 ft 279 kts 239°
2026-04-20 18:53 34.09003 -78.30279 14185 ft 264 kts 255°
2026-04-20 18:53 34.08385 -78.32262 14159 ft 246 kts 257°
2026-04-20 18:54 34.07796 -78.34158 13940 ft 237 kts 256°
2026-04-20 18:54 34.07210 -78.35983 13690 ft 230 kts 256°
2026-04-20 18:54 34.06634 -78.37747 13417 ft 225 kts 256°
2026-04-20 18:54 34.06065 -78.39493 13117 ft 221 kts 256°
2026-04-20 18:55 34.05507 -78.41209 12782 ft 219 kts 256°
2026-04-20 18:55 34.04955 -78.42910 12447 ft 218 kts 255°
2026-04-20 18:55 34.04397 -78.44622 12104 ft 217 kts 256°
2026-04-20 18:55 34.03845 -78.46312 11751 ft 217 kts 256°
2026-04-20 18:56 34.03293 -78.48000 11400 ft 217 kts 255°
2026-04-20 18:56 34.02747 -78.49676 11058 ft 217 kts 255°
2026-04-20 18:56 34.02191 -78.51380 10700 ft 217 kts 255°
2026-04-20 18:56 34.01642 -78.53065 10358 ft 216 kts 255°
2026-04-20 18:57 34.01099 -78.54710 10192 ft 206 kts 255°
2026-04-20 18:57 34.00574 -78.56306 9907 ft 203 kts 255°
2026-04-20 18:57 34.00065 -78.57872 9588 ft 202 kts 255°
2026-04-20 18:57 33.99549 -78.59451 9263 ft 201 kts 255°
2026-04-20 18:58 33.99037 -78.61013 8914 ft 202 kts 254°
2026-04-20 18:58 33.98526 -78.62573 8604 ft 201 kts 254°
2026-04-20 18:58 33.98015 -78.64130 8285 ft 200 kts 254°
2026-04-20 18:58 33.97502 -78.65688 7997 ft 198 kts 253°
2026-04-20 18:59 33.96997 -78.67221 7697 ft 197 kts 253°
2026-04-20 18:59 33.96500 -78.68729 7438 ft 192 kts 253°
2026-04-20 18:59 33.96011 -78.70216 7122 ft 191 kts 253°
2026-04-20 18:59 33.95529 -78.71688 6803 ft 190 kts 253°
2026-04-20 19:00 33.95040 -78.73164 6510 ft 188 kts 253°
2026-04-20 19:00 33.94562 -78.74616 6164 ft 189 kts 252°
2026-04-20 19:00 33.94076 -78.76091 5879 ft 186 kts 252°
2026-04-20 19:00 33.93603 -78.77526 5554 ft 186 kts 253°
2026-04-20 19:01 33.93127 -78.78976 5256 ft 185 kts 253°
2026-04-20 19:01 33.92654 -78.80404 4968 ft 183 kts 252°
2026-04-20 19:01 33.92183 -78.81831 4641 ft 184 kts 251°
2026-04-20 19:01 33.91713 -78.83251 4331 ft 184 kts 252°
2026-04-20 19:02 33.91245 -78.84672 4048 ft 182 kts 252°
2026-04-20 19:02 33.90781 -78.86076 3723 ft 183 kts 253°
2026-04-20 19:02 33.90308 -78.87508 3405 ft 183 kts 251°
2026-04-20 19:02 33.89839 -78.88922 3117 ft 181 kts 252°
2026-04-20 19:03 33.89376 -78.90320 2813 ft 181 kts 252°
2026-04-20 19:03 33.88911 -78.91724 2498 ft 181 kts 252°
2026-04-20 19:03 33.88447 -78.93128 2201 ft 180 kts 251°
2026-04-20 19:03 33.87981 -78.94531 1896 ft 180 kts 251°
2026-04-20 19:04 33.87463 -78.95894 1589 ft 182 kts 239°
2026-04-20 19:04 33.86532 -78.96832 1534 ft 170 kts 198°
2026-04-20 19:04 33.85375 -78.96912 1670 ft 171 kts 175°
2026-04-20 19:04 33.84129 -78.96749 1699 ft 182 kts 173°
2026-04-20 19:05 33.82917 -78.96517 1675 ft 167 kts 169°
2026-04-20 19:05 33.81834 -78.96262 1636 ft 154 kts 169°
2026-04-20 19:05 33.80781 -78.96011 1681 ft 156 kts 169°
2026-04-20 19:05 33.79709 -78.95749 1666 ft 158 kts 169°
2026-04-20 19:06 33.78632 -78.95483 1659 ft 157 kts 168°
2026-04-20 19:06 33.77545 -78.95213 1654 ft 159 kts 169°
2026-04-20 19:06 33.76466 -78.94945 1468 ft 159 kts 169°
2026-04-20 19:06 33.75403 -78.94679 1239 ft 151 kts 169°
2026-04-20 19:07 33.74368 -78.94422 1061 ft 150 kts 168°
2026-04-20 19:07 33.73350 -78.94169 853 ft 147 kts 169°
2026-04-20 19:07 33.72372 -78.93924 665 ft 143 kts 168°
2026-04-20 19:07 33.71395 -78.93681 477 ft 142 kts 168°
2026-04-20 19:08 33.70430 -78.93440 289 ft 139 kts 168°
2026-04-20 19:08 33.68576 -78.92981 26 ft 116 kts 168°
2026-04-20 19:08 33.67963 -78.92828 26 ft 65 kts 168°
2026-04-20 19:09 33.67652 -78.92731 26 ft 35 kts 151°
2026-04-20 19:09 33.67490 -78.92575 25 ft 22 kts 118°
2026-04-20 19:09 33.67564 -78.92530 26 ft 15 kts 347°
2026-04-20 19:09 33.67667 -78.92557 25 ft 14 kts 347°
2026-04-20 19:10 33.67762 -78.92582 26 ft 13 kts 347°
2026-04-20 19:10 33.67850 -78.92605 25 ft 12 kts 347°
2026-04-20 19:10 33.67931 -78.92614 25 ft 11 kts
2026-04-20 19:10 33.68004 -78.92619 25 ft 9 kts 355°
2026-04-20 19:11 33.68071 -78.92614 26 ft 10 kts 32°
2026-04-20 19:11 33.68117 -78.92530 26 ft 8 kts 68°
2026-04-20 19:11 33.68126 -78.92452 25 ft 7 kts 112°
2026-04-20 19:11 33.68096 -78.92424 26 ft 2 kts 162°
2026-04-20 19:12 33.68083 -78.92423 25 ft 2 kts 171°
2026-04-20 19:12 33.68076 -78.92421 25 ft 0 kts 169°